Вернуться в каталог

SDA_1672

АктивенВоенныеPO
NORAD 65982·PAYLOAD·🇺🇸 United States

Запущен Oct 15, 2025 с Vandenberg Space Force Base

Loading…

Ближайшие Пролёты (ближайшие 24 часа)

TLE

СвежийSource: Space-Track

Эпоха: Sep 14, 2026, 14:16 UTC

1 65982U 25230J   26257.59478493  .00000146  00000-0  12413-3 0  9998
2 65982  81.3012 129.5169 0000907  70.7254 289.3999 13.82263272 46141

Отслеживайте SDA_1672 в реальном времени с AllMySat

Download on the App Store